Date,TemperatureHighF,TemperatureAvgF,TemperatureLowF,DewpointHighF,DewpointAvgF,DewpointLowF,HumidityHigh,HumidityAvg,HumidityLow,PressureMaxIn,PressureMinIn,WindSpeedMaxMPH,WindSpeedAvgMPH,GustSpeedMaxMPH,PrecipitationSumIn
2013-3-1,41.5,31.5,24.3,27.0,18.9,15.3,80,61,40,29.68,29.23,5,0,5,0.00
2013-3-2,36.7,32.8,25.5,29.7,22.5,18.4,86,67,48,29.71,29.62,14,1,15,0.00
2013-3-3,39.4,37.3,35.1,38.9,35.6,29.9,98,94,80,29.94,29.59,27,3,27,0.00
2013-3-4,40.6,39.2,36.7,39.2,37.2,32.4,98,93,83,30.12,29.94,17,1,17,0.00
2013-3-5,41.5,37.6,36.5,34.4,33.0,30.9,90,84,70,30.03,29.68,3,0,3,0.00
2013-3-6,42.8,38.4,35.2,41.2,35.4,30.8,96,89,68,29.68,29.41,17,1,17,0.00
2013-3-7,39.6,36.9,33.3,38.8,32.1,27.8,98,83,66,29.41,28.91,26,7,26,0.00
2013-3-8,39.4,37.1,34.5,33.6,29.4,23.2,85,74,56,29.44,29.15,23,3,23,0.00
2013-3-9,36.0,33.7,32.2,30.7,28.3,23.4,87,81,60,29.68,29.44,0,0,0,0.00
2013-3-10,43.5,34.5,27.9,24.9,17.5,11.7,68,50,39,30.00,29.85,28,2,28,0.00
2013-3-11,41.9,34.0,28.4,19.9,13.1,8.9,45,42,37,30.06,29.97,17,1,17,0.00
2013-3-12,39.2,34.0,30.7,16.9,11.9,8.0,54,40,30,29.97,29.71,14,1,14,0.00
2013-3-13,37.9,29.8,23.7,24.5,14.2,9.2,74,53,37,29.74,29.47,7,0,7,0.00
2013-3-14,35.8,29.2,21.0,30.7,20.6,13.1,88,71,43,29.47,29.38,15,0,15,0.00
2013-3-15,42.3,32.2,25.3,33.7,22.5,15.1,90,69,46,29.59,29.38,11,0,11,0.00
2013-3-16,40.1,30.9,23.7,25.8,17.8,13.0,77,59,41,29.91,29.59,8,0,8,0.00
2013-3-17,41.5,32.7,25.2,19.1,14.0,10.3,61,46,35,29.97,29.85,17,1,17,0.00
2013-3-18,37.0,32.2,25.9,16.5,11.7,6.1,52,42,34,29.85,29.68,17,1,17,0.00
2013-3-19,35.8,28.6,24.1,11.8,6.7,1.2,48,39,34,29.68,29.65,15,1,15,0.00
2013-3-20,39.7,29.6,23.0,13.5,4.9,-0.4,39,35,30,29.83,29.65,26,1,26,0.00
2013-3-21,41.9,32.7,22.8,17.6,10.9,3.6,52,40,33,29.97,29.83,15,0,15,0.00
2013-3-22,42.8,37.1,34.0,28.3,23.2,14.2,73,57,43,29.88,29.62,0,0,10,0.00
2013-3-23,44.2,35.5,30.0,32.1,25.9,19.8,94,69,42,29.65,29.50,0,0,0,0.00
2013-3-24,33.8,32.1,27.1,32.9,25.7,9.3,97,79,46,29.50,29.35,230,0,230,0.00
2013-3-25,30.4,23.0,15.1,13.6,3.6,-3.3,54,43,35,29.68,29.38,0,0,0,0.00
2013-3-26,35.1,22.0,10.4,9.9,1.8,-6.3,58,42,30,29.91,29.68,0,0,0,0.00
2013-3-27,37.4,33.5,21.9,33.0,26.0,14.3,89,74,60,29.91,29.77,13,0,13,0.00
2013-3-28,38.5,36.7,35.4,37.4,34.4,31.7,97,91,85,29.77,29.38,22,4,22,0.00
2013-3-29,49.3,36.7,32.9,39.7,34.0,26.4,97,91,45,29.56,29.41,0,0,0,0.00
2013-3-30,51.6,42.8,35.2,30.7,27.4,24.5,73,55,40,29.94,29.88,11,0,11,0.00
2013-3-31,42.1,35.1,28.9,32.1,27.4,23.8,88,74,50,29.97,29.91,0,0,0,0.00